Location: Unspecified
(0.0000°N, 0.0000°E)
Time: 05:08:02
(UTC+00:00)

Explorer 7 - Pass Details

Date: 06 October 2020
Orbit: 484 x 678 km, 50.3° (Epoch: 28 October)

Event Time Altitude Azimuth Distance (km) Brightness Sun altitude
Rises 18:37:22 0° 211° (SSW) 2,545 10.8 -12.3°
Reaches altitude 10° 18:39:32 10° 207° (SSW) 1,672 9.7 -12.8°
Maximum altitude 18:43:15 61° 127° (SE) 570 6.6 -13.8°
Enters shadow 18:45:45 20° 51° (NE) 1,204 8.1 -14.4°
Drops below altitude 10° 18:47:06 10° 46° (NE) 1,731 - -14.7°
Sets 18:49:22 0° 42° (NE) 2,645 - -15.3°
